This is the latest recevied weather packets stored in our database for station/object KO4APQ. If no packets are shown the sender has not sent any weather packets the latest 10 day(s).
| Time | Temp. | Humidity | Pressure | Rain* | Wind** | Luminosity | Snow |
|---|---|---|---|---|---|---|---|
| 1778077104 | 20° C | 71% | 1015.3 hPa | 0 mm | - | 244 W/m² | - |
| 1778076801 | 20° C | 70% | 1015.2 hPa | 0 mm | - | 244 W/m² | - |
| 1778076499 | 20° C | 71% | 1015.2 hPa | 0 mm | - | 243 W/m² | - |
| 1778076195 | 20° C | 70% | 1015.3 hPa | 0 mm | - | 201 W/m² | - |
| 1778075893 | 19.44° C | 70% | 1015.2 hPa | 0 mm | - | 194 W/m² | - |
| 1778075589 | 19.44° C | 70% | 1015.3 hPa | 0 mm | - | 175 W/m² | - |
| 1778075286 | 19.44° C | 70% | 1015.1 hPa | 0 mm | - | 153 W/m² | - |
| 1778074982 | 19.44° C | 70% | 1015.1 hPa | 0 mm | - | 179 W/m² | - |
| 1778074679 | 19.44° C | 70% | 1015.2 hPa | 0 mm | - | 144 W/m² | - |
| 1778074376 | 19.44° C | 69% | 1014.9 hPa | 0 mm | - | 154 W/m² | - |
| 1778074073 | 18.89° C | 70% | 1015 hPa | 0 mm | - | 176 W/m² | - |
| 1778073770 | 18.89° C | 69% | 1015.2 hPa | 0 mm | - | 133 W/m² | - |
| 1778073468 | 18.89° C | 69% | 1015.1 hPa | 0 mm | - | 139 W/m² | - |
| 1778073163 | 18.89° C | 69% | 1015.1 hPa | 0 mm | - | 156 W/m² | - |
| 1778072860 | 18.89° C | 69% | 1015.2 hPa | 0 mm | - | 154 W/m² | - |
| 1778072557 | 18.33° C | 69% | 1014.9 hPa | 0 mm | - | 165 W/m² | - |
| 1778072256 | 18.33° C | 69% | 1015 hPa | 0 mm | - | 186 W/m² | - |
| 1778071953 | 18.33° C | 69% | 1015.3 hPa | 0 mm | - | 159 W/m² | - |
| 1778071651 | 18.33° C | 69% | 1015.3 hPa | 0 mm | - | 139 W/m² | - |
| 1778071349 | 18.33° C | 69% | 1015.5 hPa | 0 mm | - | 167 W/m² | - |
| 1778071046 | 18.33° C | 69% | 1015.4 hPa | 0 mm | - | 131 W/m² | - |
| 1778070745 | 17.78° C | 68% | 1015.2 hPa | 0 mm | - | 89 W/m² | - |
| 1778070441 | 17.78° C | 68% | 1015.2 hPa | 0 mm | - | 106 W/m² | - |
| 1778070138 | 17.78° C | 68% | 1015.1 hPa | 0 mm | - | 106 W/m² | - |
| 1778069836 | 17.78° C | 67% | 1015.4 hPa | 0 mm | - | 73 W/m² | - |
* Rain latest hour (hover to see other rain measurements)
** Current wind speed in m/s (hover to see current wind gust speed)